Temperature
18 18 18 18 18 18 18 18 17 17 18 18 18 18 18 18 18 18 18 18 18 18 18 18 17 17 17 17 17 17 17 17 17 16 16 16 16 16 16 16 16 16 16
18 18 18 18 18 18 18 18 18 18 18 18 18 18 18 18 18 18 18 18 18 18 18 18 17 17 17 17 17 17 17 17 16 16 16 16 16 16 16 16 16 16 16
18 18 18 18 18 18 18 18 18 18 18 18 18 18 18 18 18 18 17 17 17 17 17 17 17 17 17 17 17 17 17 16 16 16 16 16 16 16 16 16 16 16 16
18 18 18 18 18 18 18 18 18 18 18 18 18 18 18 18 18 18 17 17 17 17 17 17 17 17 17 17 17 17 17 16 16 16 16 16 16 16 16 16 16 16 15
18 18 18 18 18 18 18 18 18 18 18 18 18 18 18 18 18 18 17 17 17 17 17 17 17 17 17 17 17 17 16 16 16 16 16 16 16 16 16 16 15 15 15
18 18 18 18 18 18 18 18 18 18 18 18 18 18 18 18 18 18 17 17 17 17 17 17 17 17 17 16 16 16 16 16 16 16 16 16 16 16 16 16 15 15 15
18 18 18 18 18 18 18 18 18 18 18 18 18 18 18 18 18 18 17 17 17 17 17 17 16 16 16 16 16 16 16 16 16 16 16 16 16 16 16 16 15 15 15
18 18 18 18 18 18 18 18 18 18 18 18 18 18 18 18 18 17 17 17 17 17 17 17 16 16 16 16 16 16 16 16 16 16 16 16 16 16 16 15 15 15 15
18 18 18 18 18 18 18 18 18 18 18 18 18 18 18 18 17 17 17 17 17 17 17 16 16 16 16 16 16 16 16 16 16 16 16 16 16 16 15 15 15 15 15
18 18 18 18 18 18 18 18 18 18 18 18 18 18 18 18 17 17 17 17 17 17 16 16 16 16 16 16 16 16 16 16 16 16 16 16 15 15 15 15 15 15 15
18 18 18 18 18 18 18 18 18 18 18 18 18 18 18 18 18 17 17 17 17 16 16 16 16 16 16 16 16 16 16 15 15 15 15 15 15 15 15 15 15 14 14
19 19 18 19 18 18 18 18 18 18 18 18 18 18 18 18 18 18 17 17 17 16 16 16 16 16 15 15 15 15 15 15 15 15 15 15 15 15 14 14 14 14 14
19 19 19 19 18 18 18 18 18 18 18 18 18 18 18 18 18 18 18 17 16 16 16 16 16 15 15 15 15 15 15 15 15 15 15 15 14 14 14 14 14 14 14
19 19 19 19 19 18 18 18 18 18 18 18 18 18 18 18 17 17 17 17 16 16 16 16 15 15 15 15 15 15 15 15 15 15 14 14 14 14 14 14 14 14 13
19 19 19 19 19 18 18 18 18 18 18 18 17 17 17 17 17 17 17 17 17 16 16 16 15 15 15 15 15 15 15 15 14 14 14 14 14 14 14 14 14 13 13
19 19 19 19 18 18 18 18 18 18 18 18 17 17 17 17 17 17 17 17 17 17 16 16 15 15 15 15 15 14 14 14 14 14 14 14 14 14 14 13 13 13 13
19 19 19 19 18 18 18 18 18 18 18 18 18 17 17 17 17 17 17 17 17 16 16 16 15 15 15 14 14 14 14 14 14 14 14 14 14 14 13 13 13 13 13
19 19 19 19 19 18 18 18 18 17 17 17 17 17 17 17 17 17 17 17 16 16 16 16 15 15 14 14 14 14 14 14 14 14 14 13 13 13 13 13 13 13 12
19 19 19 19 18 18 18 18 18 17 17 17 17 17 17 17 17 16 16 16 16 16 16 15 15 15 14 14 14 14 13 13 13 13 13 13 13 13 13 13 12 12 12
19 19 19 18 18 18 18 18 18 17 17 17 17 17 17 17 16 16 16 16 16 16 16 15 15 14 14 14 13 13 13 13 13 13 13 13 13 13 13 12 12 12 12
19 19 19 18 18 18 18 18 18 17 17 17 17 17 16 16 16 16 16 16 15 15 15 15 14 14 14 13 13 13 13 13 13 13 13 13 13 12 12 12 12 12 12
19 18 18 18 18 18 18 18 18 17 17 17 17 17 16 16 16 16 16 15 15 15 15 14 14 14 14 14 13 13 13 12 12 13 12 12 12 12 12 12 12 12 12
19 18 18 18 18 18 18 18 18 17 17 17 16 16 16 16 16 16 16 15 15 15 15 14 14 14 14 14 13 13 13 13 13 13 12 12 12 12 12 12 12 12 12
18 18 18 18 18 18 18 18 18 17 17 17 16 16 16 16 16 16 15 15 15 15 15 14 14 14 14 13 13 13 13 12 12 12 12 12 12 12 12 12 12 12 12
18 18 18 18 18 18 18 18 17 17 17 17 16 16 16 16 16 15 15 15 15 15 14 14 14 14 14 13 13 12 12 12 12 12 12 12 12 12 12 12 12 12 11
17 17 18 18 18 18 18 17 17 17 17 16 16 16 16 16 16 15 15 15 14 14 14 14 14 14 13 13 13 13 12 12 12 12 12 12 12 12 11 11 11 11 11
Wind_Speed
3 4 3 4 5 6 5 3 3 3 2 2 2 3 2 4 7 9 10 13 13 12 11 10 9 9 9 8 8 8 8 7 7 8 8 8 8 7 7 7 7 7 7
4 3 3 2 3 5 5 4 4 3 2 1 1 2 2 3 6 9 10 11 12 11 10 10 9 9 8 8 8 7 7 7 7 7 8 8 8 8 7 7 7 7 7
5 4 3 2 2 4 5 4 4 3 2 2 2 2 2 2 4 6 9 9 10 10 10 10 9 9 9 8 8 7 7 7 8 8 8 8 8 8 7 7 7 7 8
6 3 3 2 3 3 3 3 2 2 2 2 2 1 2 2 3 4 6 8 9 9 10 11 10 9 9 8 8 7 8 7 8 8 9 9 9 9 8 8 8 8 8
6 4 2 3 3 2 2 3 3 2 2 2 2 2 2 2 2 3 4 5 8 9 9 10 11 10 9 8 7 7 7 8 8 9 9 9 9 9 9 9 9 9 9
4 3 3 3 3 2 2 2 3 2 1 1 1 2 1 2 3 2 3 4 6 7 8 10 10 8 8 8 7 7 7 8 8 8 9 9 9 9 9 10 10 10 9
4 2 2 3 1 2 1 2 2 3 2 2 1 1 1 1 2 2 2 2 3 5 6 7 8 7 7 7 7 6 6 6 7 7 7 8 9 10 10 10 10 10 10
4 4 2 2 2 2 2 1 1 1 1 1 2 2 1 0 1 2 3 3 3 4 4 5 6 7 6 6 5 5 5 5 5 6 6 6 6 6 7 8 8 9 10
5 3 4 2 2 2 3 3 2 2 2 2 2 1 2 2 1 1 2 2 3 3 2 4 6 6 7 7 6 5 4 3 3 3 4 5 4 5 5 6 6 7 9
5 4 4 3 2 1 2 3 3 2 3 3 2 2 2 1 2 1 0 2 2 2 2 2 3 5 7 8 7 6 5 4 4 3 2 2 2 2 2 3 3 4 5
4 4 4 3 2 2 2 1 2 2 2 2 2 2 2 2 2 3 2 2 1 1 2 3 2 4 6 7 7 7 7 6 5 3 3 2 2 2 2 2 3 3 3
4 4 5 4 3 2 2 2 2 3 3 2 2 2 2 2 2 2 2 3 3 2 2 2 2 3 6 6 6 7 7 7 5 4 4 3 2 1 1 1 2 3 3
4 4 4 4 3 3 3 3 3 3 3 3 3 2 2 2 2 2 2 2 2 2 2 2 2 3 6 7 7 8 7 8 7 6 4 3 2 1 1 1 1 1 1
3 5 4 4 3 3 3 2 3 3 3 3 4 3 2 2 1 1 2 2 2 2 2 3 2 3 5 7 8 9 7 8 8 7 5 3 2 1 1 1 1 1 1
4 5 4 4 3 3 2 2 2 2 2 3 3 3 3 3 1 1 1 2 2 2 2 3 2 3 5 7 10 8 8 8 9 7 6 5 3 2 2 2 2 3 3
2 5 5 4 4 3 3 3 3 3 2 2 2 1 2 2 2 2 2 2 2 2 1 2 2 2 3 5 8 7 7 9 9 9 8 6 5 4 3 3 3 3 3
3 4 4 4 4 4 3 3 4 4 4 3 3 3 3 2 1 1 2 2 2 2 2 1 2 3 3 3 4 6 8 9 8 9 9 8 7 6 5 4 4 4 3
5 5 5 4 5 5 4 4 5 4 4 4 3 3 3 2 2 2 2 2 1 2 3 3 2 3 3 4 4 4 6 7 8 10 11 10 9 8 7 6 5 4 4
5 5 5 5 5 4 5 4 4 4 3 3 3 3 2 2 2 2 2 2 2 2 2 3 3 3 2 3 4 4 4 4 6 9 12 12 11 10 9 8 7 6 6
4 4 4 4 4 3 4 4 4 3 3 3 2 2 2 2 2 2 3 2 2 1 2 3 3 3 3 3 3 3 3 3 4 6 8 10 12 12 11 10 10 9 8
6 5 5 4 4 4 4 3 3 4 3 2 2 2 2 2 2 1 2 1 2 2 2 3 4 3 3 3 4 4 4 3 4 3 4 6 8 8 10 11 11 11 11
5 4 5 5 5 5 3 3 3 3 3 3 3 2 3 3 3 2 2 2 2 3 3 3 3 4 5 5 5 5 4 3 3 3 4 4 6 6 8 10 13 14 14
5 5 5 5 5 3 5 5 4 3 4 3 3 3 4 3 5 3 3 4 3 3 4 4 4 4 4 5 5 5 4 5 4 3 3 4 4 4 7 10 15 16 15
5 5 6 6 5 5 7 6 6 5 4 4 4 4 3 3 3 3 4 4 4 3 4 4 4 4 3 3 4 5 5 4 3 3 4 4 4 4 4 8 15 17 16
5 5 5 6 6 5 8 8 7 5 5 5 5 4 5 4 4 5 4 5 4 4 3 4 4 4 4 5 4 2 3 3 4 3 3 4 3 3 3 4 11 17 17
4 4 5 5 6 5 9 10 9 5 5 4 4 4 5 5 5 6 5 5 5 5 4 3 3 5 5 7 8 6 4 4 4 3 3 3 3 2 2 3 5 10 12
Wind_Direction
129 127 125 140 155 160 163 167 160 140 138 157 159 138 113 107 119 123 141 155 156 161 165 168 172 177 180 182 189 193 194 197 195 193 195 197 201 202 204 206 211 216 215
126 121 135 148 167 163 159 155 145 140 150 125 98 97 107 118 125 132 145 157 164 168 172 176 181 186 189 192 194 195 197 197 196 193 193 196 201 204 206 207 211 216 216
137 144 152 176 157 147 141 144 135 143 164 153 154 140 112 102 119 133 147 153 163 175 178 181 185 188 189 192 195 196 194 198 199 197 198 203 206 207 210 212 217 221 222
148 162 155 157 155 159 149 142 153 153 167 155 149 154 136 122 132 149 156 160 161 165 180 187 188 187 189 191 193 195 195 197 200 203 208 209 208 209 213 217 223 228 230
157 167 148 139 162 161 151 173 141 150 157 150 155 161 162 148 154 159 158 167 164 159 165 178 185 187 191 195 199 202 203 205 207 209 210 211 211 213 216 221 226 230 233
150 166 144 154 177 155 149 126 126 142 157 176 181 125 146 164 154 158 164 163 157 161 163 165 174 183 192 197 200 205 209 208 208 210 214 218 220 222 224 228 230 231 232
153 162 141 148 176 141 143 159 156 170 184 177 153 109 113 177 161 149 138 136 139 137 136 146 162 170 174 190 199 206 211 210 210 212 216 220 224 227 228 231 233 233 234
161 166 160 176 178 154 161 177 167 170 211 184 153 145 146 95 35 128 133 146 139 133 133 143 148 148 152 142 158 182 196 203 204 204 208 213 218 221 227 230 230 234 237
166 174 163 175 180 176 167 180 190 189 204 225 206 180 171 186 157 95 136 127 120 113 121 125 133 142 139 128 126 132 154 166 173 192 204 212 214 217 224 224 232 240 243
169 173 161 165 184 185 158 196 175 198 195 225 226 222 213 154 153 151 101 120 130 130 129 119 114 118 123 123 124 128 136 134 129 126 143 172 186 182 187 209 231 240 245
169 166 155 161 169 186 180 201 143 212 218 228 231 212 196 176 189 170 180 172 143 132 139 138 134 127 126 126 127 127 131 130 127 121 122 123 135 169 187 214 238 243 251
172 171 161 163 174 187 187 194 205 205 223 235 240 236 215 200 202 184 176 169 164 154 150 145 151 136 130 127 130 133 132 134 133 131 127 126 124 138 186 236 247 251 254
168 166 164 162 180 185 189 189 193 218 218 219 229 239 239 247 214 177 161 160 158 157 164 175 161 140 144 133 135 141 140 142 140 135 130 128 128 141 189 251 261 281 269
161 154 162 172 192 197 195 185 200 208 205 220 230 231 247 258 267 170 170 164 176 184 176 174 151 147 142 145 151 156 152 154 152 147 145 140 133 131 128 108 101 88 105
175 160 170 176 185 201 201 174 204 225 199 217 230 217 232 230 235 226 172 175 187 202 206 182 169 153 145 144 154 160 161 162 164 162 160 157 152 144 132 124 121 117 114
177 165 182 181 182 192 201 198 203 201 207 216 224 226 241 251 230 228 204 224 210 200 220 171 159 147 150 150 157 166 161 163 170 175 173 170 167 163 157 150 145 138 135
182 187 196 191 192 199 205 211 219 206 206 212 216 203 212 243 239 241 220 222 207 181 196 191 147 147 151 155 157 171 173 173 177 183 180 180 179 178 175 172 167 162 159
192 196 196 203 208 205 207 214 228 224 211 213 220 211 219 212 208 249 256 245 218 191 189 186 178 172 179 180 180 196 189 193 183 187 188 189 188 185 182 178 173 170 170
199 200 199 207 215 210 206 213 221 234 221 211 209 213 219 205 214 231 240 237 234 207 181 190 195 178 182 187 195 215 211 202 199 188 192 197 197 190 187 184 182 181 181
197 206 207 211 216 212 210 212 215 221 221 214 196 200 205 206 215 236 231 228 230 212 190 191 196 186 185 197 198 213 221 218 220 200 195 196 197 197 198 195 194 194 195
204 199 205 213 215 219 224 219 229 215 209 208 193 196 185 173 178 217 234 226 213 216 209 203 202 191 197 197 216 224 227 224 225 200 200 196 187 195 201 203 203 202 201
209 202 206 215 220 222 186 189 223 224 207 215 212 208 194 167 168 169 162 157 192 216 222 216 210 209 213 209 217 226 225 224 234 206 201 218 190 197 198 200 200 200 201
209 211 219 219 219 198 191 189 200 221 213 217 223 226 233 212 189 191 199 201 213 231 231 234 235 231 218 207 211 222 225 228 238 213 212 231 208 211 198 199 194 196 199
213 216 223 224 221 213 199 196 202 224 226 219 221 219 221 219 214 209 220 217 222 233 235 234 244 251 234 215 216 223 232 240 250 221 201 233 220 220 209 183 189 192 198
220 222 226 225 226 214 199 197 202 227 231 226 223 220 215 215 206 210 218 225 226 228 229 222 219 217 218 212 216 237 229 234 247 230 206 227 234 226 213 191 195 199 200
229 234 237 233 230 217 200 199 200 224 230 228 224 220 211 204 193 205 220 227 231 231 219 212 217 224 220 215 213 219 225 233 248 239 206 214 229 218 232 213 188 195 205
Height
1539 1540 1542 1543 1545 1546 1548 1549 1551 1552 1553 1554 1555 1556 1557 1559 1559 1560 1560 1561 1562 1563 1564 1565 1566 1567 1567 1568 1569 1570 1571 1571 1572 1573 1574 1574 1575 1576 1577 1578 1579 1580 1580
1540 1542 1543 1544 1546 1548 1549 1550 1551 1552 1554 1555 1556 1557 1558 1559 1560 1560 1561 1562 1562 1563 1564 1565 1565 1566 1567 1568 1568 1569 1570 1570 1571 1571 1572 1573 1574 1575 1576 1576 1577 1578 1578
1541 1543 1544 1545 1547 1549 1550 1551 1552 1553 1554 1555 1556 1557 1558 1559 1560 1560 1561 1561 1562 1563 1564 1564 1565 1566 1566 1567 1567 1568 1568 1569 1569 1570 1571 1571 1572 1573 1574 1575 1575 1576 1576
1542 1543 1545 1546 1547 1549 1550 1551 1552 1553 1554 1555 1556 1557 1558 1559 1559 1560 1561 1561 1562 1563 1563 1564 1565 1565 1565 1566 1566 1566 1567 1567 1568 1568 1569 1570 1570 1571 1572 1572 1573 1573 1574
1543 1544 1545 1546 1548 1549 1550 1551 1552 1553 1554 1555 1556 1557 1558 1558 1559 1560 1560 1561 1562 1562 1562 1563 1564 1564 1564 1565 1565 1565 1566 1566 1566 1567 1567 1568 1568 1569 1569 1570 1570 1571 1571
1542 1544 1545 1546 1548 1549 1550 1551 1552 1553 1554 1554 1555 1556 1557 1558 1558 1559 1559 1560 1561 1562 1562 1562 1563 1563 1563 1563 1564 1564 1564 1564 1564 1565 1565 1565 1566 1566 1567 1567 1568 1568 1568
1542 1543 1545 1546 1547 1548 1549 1550 1551 1552 1553 1554 1555 1556 1557 1557 1558 1558 1559 1559 1560 1561 1561 1561 1561 1562 1562 1562 1562 1562 1563 1562 1562 1562 1563 1563 1563 1564 1564 1564 1565 1565 1565
1542 1543 1544 1545 1546 1547 1548 1549 1550 1551 1552 1553 1554 1555 1556 1558 1557 1557 1558 1558 1559 1560 1560 1560 1560 1560 1561 1560 1560 1561 1561 1561 1560 1560 1560 1561 1561 1561 1561 1561 1561 1562 1562
1541 1542 1544 1545 1546 1547 1547 1548 1549 1550 1551 1552 1553 1554 1554 1555 1556 1557 1557 1558 1559 1559 1559 1560 1560 1560 1559 1559 1559 1559 1559 1559 1558 1558 1558 1558 1558 1558 1558 1558 1558 1559 1559
1541 1542 1543 1544 1545 1545 1546 1547 1548 1549 1550 1551 1552 1552 1553 1553 1554 1555 1557 1557 1558 1558 1558 1559 1559 1559 1558 1558 1557 1557 1557 1557 1557 1556 1556 1556 1556 1556 1556 1556 1556 1556 1556
1540 1541 1542 1543 1544 1544 1545 1546 1547 1547 1548 1549 1550 1550 1551 1552 1552 1553 1554 1556 1556 1557 1557 1557 1557 1557 1557 1556 1556 1556 1556 1555 1555 1555 1554 1554 1554 1554 1553 1553 1553 1553 1553
1540 1541 1541 1542 1543 1543 1544 1544 1545 1545 1546 1547 1548 1548 1549 1550 1550 1551 1552 1553 1554 1555 1555 1556 1556 1556 1556 1555 1555 1555 1554 1554 1553 1553 1553 1552 1552 1552 1551 1551 1551 1551 1551
1539 1540 1541 1541 1542 1542 1542 1543 1543 1543 1544 1544 1545 1546 1547 1548 1549 1550 1550 1551 1552 1553 1553 1554 1554 1554 1554 1553 1553 1553 1552 1552 1552 1551 1551 1551 1550 1550 1550 1549 1549 1549 1548
1538 1539 1540 1540 1540 1541 1541 1541 1541 1542 1542 1543 1543 1544 1544 1546 1547 1548 1548 1549 1550 1551 1551 1551 1552 1552 1552 1551 1551 1551 1551 1550 1550 1550 1550 1549 1549 1548 1548 1547 1547 1547 1546
1537 1538 1538 1538 1539 1539 1539 1540 1540 1540 1541 1541 1541 1542 1542 1543 1545 1545 1546 1547 1548 1548 1548 1549 1549 1549 1549 1549 1549 1549 1549 1549 1548 1548 1548 1547 1547 1546 1546 1545 1545 1545 1544
1536 1536 1536 1537 1537 1537 1538 1538 1538 1538 1539 1539 1539 1540 1540 1541 1542 1543 1543 1544 1545 1545 1545 1545 1546 1546 1547 1547 1547 1547 1547 1546 1546 1546 1546 1545 1545 1544 1544 1543 1543 1543 1542
1533 1534 1534 1535 1535 1536 1536 1536 1536 1537 1537 1537 1537 1538 1538 1539 1540 1540 1541 1541 1542 1542 1542 1542 1543 1544 1544 1544 1544 1544 1544 1544 1544 1544 1544 1543 1543 1542 1542 1542 1541 1541 1541
1531 1531 1532 1532 1533 1534 1534 1534 1535 1535 1535 1536 1536 1536 1536 1537 1537 1538 1538 1539 1539 1539 1539 1539 1540 1540 1541 1541 1542 1542 1542 1542 1542 1541 1541 1541 1541 1540 1540 1540 1539 1539 1539
1529 1529 1530 1530 1531 1531 1531 1532 1532 1533 1533 1533 1534 1534 1534 1534 1535 1535 1536 1536 1537 1537 1537 1537 1537 1538 1538 1538 1539 1539 1539 1539 1539 1539 1539 1539 1539 1538 1538 1538 1537 1537 1537
1526 1527 1527 1528 1528 1528 1529 1529 1529 1530 1530 1531 1531 1532 1532 1532 1532 1532 1533 1533 1534 1534 1534 1534 1534 1534 1534 1535 1535 1536 1536 1536 1536 1536 1536 1536 1536 1536 1536 1536 1535 1535 1535
1523 1524 1524 1525 1525 1526 1526 1527 1527 1527 1528 1528 1528 1529 1529 1529 1529 1529 1530 1530 1530 1530 1530 1531 1531 1531 1531 1531 1532 1532 1532 1533 1533 1533 1533 1533 1533 1533 1533 1533 1533 1533 1533
1520 1521 1521 1522 1523 1523 1523 1524 1525 1525 1525 1525 1525 1526 1526 1526 1526 1526 1526 1526 1527 1527 1527 1527 1527 1527 1527 1528 1528 1529 1529 1529 1529 1531 1530 1530 1530 1530 1530 1530 1530 1530 1530
1516 1517 1518 1518 1519 1519 1520 1520 1521 1521 1521 1522 1522 1522 1523 1522 1523 1523 1523 1523 1523 1523 1524 1524 1524 1524 1524 1524 1525 1525 1525 1525 1525 1526 1527 1526 1527 1527 1527 1527 1527 1527 1527
1513 1513 1514 1515 1515 1516 1516 1517 1517 1518 1518 1518 1518 1519 1519 1519 1519 1519 1519 1519 1519 1519 1520 1520 1521 1521 1521 1521 1521 1522 1522 1522 1522 1523 1524 1523 1523 1523 1523 1523 1524 1524 1524
1509 1510 1510 1511 1512 1512 1512 1513 1513 1514 1513 1514 1514 1515 1515 1515 1515 1515 1515 1515 1515 1515 1515 1516 1516 1516 1517 1517 1517 1518 1518 1518 1518 1518 1519 1520 1519 1519 1520 1520 1520 1520 1521
1505 1506 1506 1507 1507 1508 1508 1509 1509 1510 1510 1510 1510 1510 1510 1511 1511 1511 1511 1511 1510 1510 1511 1511 1511 1512 1512 1512 1512 1513 1513 1514 1513 1514 1514 1515 1515 1516 1515 1515 1516 1516 1516